Simultaneous Nadir Overpasses (SNOs) Predictions

Prediction of SNOs between GOES-15 and TERRA Satellite Orbit:

Table of predicted SNOs for the next 14.0 days since TLE Epoch: 8/26/2023
Index Date Time (GOES-15) GOES-15 Lat,Lon TERRA Lat,Lon Distance(km) Time Diff (sec)
1 08/26/2023 12:46:54 0.18, 134.33 1.05, 138.44 467.10 80
2 08/27/2023 01:09:46 -0.22, 133.72 -0.15, 133.51 24.37 80
3 08/29/2023 13:11:10 0.22, 131.21 0.49, 132.42 137.36 80
4 08/30/2023 01:34:03 -0.25, 130.60 0.39, 127.49 353.65 80
5 09/01/2023 01:15:05 -0.23, 128.53 -0.82, 131.37 322.41 80
6 09/01/2023 13:38:06 0.26, 128.07 -0.09, 126.40 189.46 80
7 09/03/2023 13:19:08 0.23, 125.99 1.14, 130.28 487.93 80
8 09/04/2023 01:42:01 -0.26, 125.37 -0.28, 125.34 2.82 80
9 09/06/2023 13:43:22 0.26, 122.82 0.56, 124.27 165.12 80
10 09/07/2023 02:06:15 -0.29, 122.19 0.29, 119.33 324.85 80
